NOAA-style Climate Reports

   V/Λ SELECT: Month and Year   OR  >   Month
                   Monthly Climatological Summary for Jul 2018

Name: Wetterstation Bebra-Gilfershausen   City: Bebra   State: Germany
Elevation: 250 m  Lat: N 50 59 02   Lon: E 009 49 37

                  Temperature (°°C), Rain (mm), Wind Speed (km/h)

                                      Heat  Cool        Avg
    Mean                              Deg   Deg         Wind                 Dom
Day Temp  High   Time   Low    Time   Days  Days  Rain  Speed High   Time    Dir
----------------------------------------------------------------------------------
01  34,8  59,8   00:00 -19,6   06:25   3,8  11,8   0,0   0,0   0,0   00:00     N
02  -9,2  31,1   00:00 -29,7   02:34  27,4   0,0   0,0   0,0   0,0   00:00     N
03  16,1  45,6   23:29 -29,7   01:17  16,7   8,0   0,0   0,0   0,0   00:00     N
04  28,9  58,4   09:12 -29,7   02:19  14,3  18,3   0,0   0,0   0,0   00:00     N
05  38,7  59,4   23:18 -29,9   05:53   8,1  20,7   0,5   0,0   0,0   00:00     N
06  55,3  59,6   21:20  27,3   21:41   0,0  26,5   0,0   0,0   0,0   00:00     N
07  43,0  59,3   20:48  22,9   10:59   0,0  14,8   0,0   0,0   0,0   00:00     N
08  44,8  59,4   20:33 -29,1   22:15   4,6  21,7   0,0   0,0   0,0   00:00     N
09  -9,1  59,1   13:49 -29,9   21:15  32,0   2,5   1,0   0,0   0,0   00:00     N
10 -29,9 -29,9   00:00 -29,9   00:00  47,9   0,0   8,3   0,0   0,0   00:00     N
11 -29,9 -29,9   00:00 -29,9   00:00  47,9   0,0   5,2   0,0   0,0   00:00     N
12 -29,9 -28,4   17:16 -29,9   00:00  47,9   0,0   0,0   0,0   0,0   00:00     N
13 -26,7   1,8   16:17 -29,9   00:00  44,7   0,0   0,0   0,0   0,0   00:00     N
14 -28,2 -13,1   15:53 -29,9   15:11  46,2   0,0   0,0   0,0   0,0   00:00     N
15 -29,2 -21,1   16:42 -29,9   16:08  47,2   0,0   0,0   0,0   0,0   00:00     N
16 -29,1 -16,9   14:02 -29,9   00:00  47,1   0,0   0,0   0,0   0,0   00:00     N
17 -26,1   2,8   15:53 -29,8   18:27  44,1   0,0   0,0   0,0   0,0   00:00     N
18 -29,6 -29,6   00:00 -29,6   00:00  47,6   0,0   0,0   0,0   0,0   00:00     N
19 -29,6 -29,6   00:00 -29,6   00:00  47,6   0,0   0,0   0,0   0,0   00:00     N
20 -29,6 -29,6   00:00 -29,6   00:00  47,6   0,0   0,0   0,0   0,0   00:00     N
21 -29,6 -29,6   00:00 -29,6   00:00  47,6   0,0   0,0   0,0   0,0   00:00     N
22 -29,6 -29,6   00:00 -29,6   00:00  47,6   0,0   5,7   0,0   0,0   00:00     N
23 -29,6 -29,6   00:00 -29,6   00:00  47,6   0,0   0,0   0,0   0,0   00:00     N
24 -29,6 -29,6   00:00 -29,6   00:00  47,6   0,0   0,0   0,0   0,0   00:00     N
25 -29,6 -29,6   00:00 -29,6   00:00  47,6   0,0   0,0   0,0   0,0   00:00     N
26 -29,6 -29,6   00:00 -29,6   00:00  47,6   0,0   0,0   0,0   0,0   00:00     N
27 -29,6 -29,6   00:00 -29,6   00:00  47,6   0,0   0,0   0,0   0,0   00:00     N
28 -29,6 -29,6   00:00 -29,6   00:00  47,6   0,0   0,0   0,0   0,0   00:00     N
29 -29,6 -29,6   00:00 -29,6   00:00  47,6   0,0   0,0   0,0   0,0   00:00     N
30 -29,6 -29,6   00:00 -29,6   00:00  47,6   0,0   0,0   0,0   0,0   00:00     N
31 -29,0 -19,5   17:46 -29,9   14:23  47,0   0,0   0,0   0,0   0,0   00:00     N
----------------------------------------------------------------------------------
   -12,9  59,8     1   -29,9     5  1145,7 124,3  20,7   0,0   0,0     0       E

Max >=  27,0  9
Max <=   0,0 20
Min <=   0,0 29
Min <= -18,0 29
Max Rain: 8,3 on day 10
Days of Rain: 3 (>= 2,0 mm)  3 (>= 2,0 mm)  3 (>= 2,0 mm)
Heat Base: 18,0  Cool Base: 29,0  Method: Integration

powered by CumulusMX v3.8.3 (b3093) Valid HTML5    Last Cumulus update   08:34:19